When you browse on this site, cookies collect data to enhance your experience and personalize the content and advertising you see.
Visit our Privacy Policy to learn more. By continuing to use the site, you agree to this use of cookies and data.
  • In Romania
  • List of Countries
  • For 7 days
  • Water Temperature
  • Satellite Maps
  • Weather Map
  • Weather Widgets
  • user-avatar
    Login

    Hourly Weather Belfast

    Today, 20 January, Sunday

    Time Temperature Precipitation Wind Pressure Humidity
    00:00 +5°C° 0 mm 1 mps 757 mmHg 95%
    01:00 +4°C° 0 mm 1 mps 757 mmHg 95%
    02:00 +3°C° 0 mm 0 mps 757 mmHg 95%
    03:00 +3°C° 0 mm 0 mps 757 mmHg 95%
    04:00 +3°C° 0 mm 0 mps 758 mmHg 95%
    05:00 +4°C° 0 mm 1 mps 758 mmHg 95%
    06:00 +4°C° 0 mm 1 mps 759 mmHg 95%
    07:00 +4°C° 0.4 mm 2 mps 760 mmHg 95%
    08:00 +4°C° 0.4 mm 3 mps 760 mmHg 94%
    09:00 +4°C° 0.4 mm 4 mps 761 mmHg 93%
    10:00 +5°C° 0.1 mm 5 mps 762 mmHg 89%
    11:00 +4°C° 0.1 mm 7 mps 763 mmHg 84%
    12:00 +5°C° 0.1 mm 8 mps 763 mmHg 79%
    13:00 +4°C° 0 mm 7 mps 764 mmHg 78%
    14:00 +4°C° 0 mm 7 mps 764 mmHg 76%
    15:00 +4°C° 0 mm 6 mps 765 mmHg 74%
    16:00 +3°C° 0 mm 5 mps 765 mmHg 76%
    17:00 +2°C° 0 mm 5 mps 766 mmHg 77%
    18:00 +1°C° 0 mm 4 mps 766 mmHg 79%
    19:00 +1°C° 0 mm 4 mps 767 mmHg 80%
    20:00 +1°C° 0 mm 3 mps 767 mmHg 82%
    21:00 +2°C° 0 mm 2 mps 768 mmHg 84%
    22:00 +2°C° 0 mm 2 mps 768 mmHg 86%
    23:00 +1°C° 0 mm 2 mps 768 mmHg 88%

    Tomorrow, 21 January, Monday

    Time Temperature Precipitation Wind Pressure Humidity
    00:00 +1°C° 0 mm 2 mps 768 mmHg 90%
    01:00 +1°C° 0 mm 2 mps 768 mmHg 90%
    02:00 +1°C° 0 mm 2 mps 767 mmHg 90%
    03:00 +1°C° 0 mm 2 mps 767 mmHg 90%
    04:00 +1°C° 0 mm 2 mps 766 mmHg 89%
    05:00 0°C° 0 mm 3 mps 766 mmHg 88%
    06:00 0°C° 0 mm 3 mps 765 mmHg 87%
    07:00 0°C° 0 mm 3 mps 764 mmHg 85%
    08:00 -1°C° 0 mm 4 mps 764 mmHg 84%
    09:00 0°C° 0 mm 4 mps 763 mmHg 82%
    10:00 +1°C° 0 mm 5 mps 762 mmHg 78%
    11:00 +1°C° 0 mm 6 mps 761 mmHg 74%
    12:00 +2°C° 0 mm 7 mps 760 mmHg 70%
    13:00 +1°C° 0.3 mm 8 mps 758 mmHg 74%
    14:00 +1°C° 0.3 mm 9 mps 756 mmHg 77%
    15:00 +1°C° 0.3 mm 9 mps 754 mmHg 81%
    16:00 +1°C° 1.1 mm 9 mps 753 mmHg 83%
    17:00 +1°C° 1.1 mm 9 mps 752 mmHg 86%
    18:00 +1°C° 1.1 mm 8 mps 751 mmHg 88%
    19:00 0°C° 0.1 mm 8 mps 750 mmHg 86%
    20:00 -1°C° 0.1 mm 7 mps 750 mmHg 83%
    21:00 -1°C° 0.1 mm 7 mps 749 mmHg 81%
    22:00 -2°C° 0 mm 7 mps 749 mmHg 81%
    23:00 -2°C° 0 mm 7 mps 749 mmHg 81%

    Day after tomorrow, 22 January, Tuesday

    Time Temperature Precipitation Wind Pressure Humidity
    00:00 -2°C° 0 mm 7 mps 749 mmHg 80%
    01:00 -2°C° 0 mm 7 mps 748 mmHg 81%
    02:00 -2°C° 0 mm 7 mps 748 mmHg 81%
    03:00 -2°C° 0 mm 6 mps 748 mmHg 81%
    04:00 -2°C° 0 mm 6 mps 748 mmHg 80%
    05:00 -2°C° 0 mm 7 mps 748 mmHg 80%
    06:00 -2°C° 0 mm 7 mps 747 mmHg 79%
    07:00 -2°C° 0 mm 7 mps 748 mmHg 77%
    08:00 -2°C° 0 mm 7 mps 748 mmHg 76%
    09:00 -2°C° 0 mm 7 mps 749 mmHg 74%
    10:00 -1°C° 0 mm 7 mps 749 mmHg 71%
    11:00 -1°C° 0 mm 7 mps 749 mmHg 67%
    12:00 0°C° 0 mm 7 mps 750 mmHg 63%
    13:00 0°C° 0 mm 7 mps 750 mmHg 63%
    14:00 +1°C° 0 mm 6 mps 750 mmHg 62%
    15:00 +1°C° 0 mm 6 mps 750 mmHg 62%
    16:00 +1°C° 0 mm 6 mps 750 mmHg 65%
    17:00 -1°C° 0 mm 6 mps 750 mmHg 68%
    18:00 -1°C° 0 mm 5 mps 750 mmHg 71%
    19:00 -1°C° 0 mm 5 mps 751 mmHg 73%
    20:00 -1°C° 0 mm 5 mps 751 mmHg 74%
    21:00 -1°C° 0 mm 5 mps 751 mmHg 76%
    22:00 -1°C° 0 mm 5 mps 751 mmHg 77%
    23:00 -1°C° 0 mm 5 mps 751 mmHg 78%

    23 January, Wednesday

    Time Temperature Precipitation Wind Pressure Humidity
    00:00 -1°C° 0 mm 5 mps 751 mmHg 79%
    01:00 -1°C° 0 mm 5 mps 752 mmHg 79%
    02:00 -1°C° 0 mm 4 mps 752 mmHg 79%
    03:00 -1°C° 0 mm 4 mps 752 mmHg 79%
    04:00 -1°C° 0 mm 4 mps 752 mmHg 81%
    05:00 -1°C° 0 mm 4 mps 752 mmHg 83%
    06:00 -1°C° 0 mm 3 mps 752 mmHg 86%
    07:00 -1°C° 0 mm 3 mps 753 mmHg 85%
    08:00 -1°C° 0 mm 3 mps 753 mmHg 85%
    09:00 0°C° 0 mm 3 mps 754 mmHg 85%
    10:00 +1°C° 0 mm 3 mps 754 mmHg 81%
    11:00 +2°C° 0 mm 3 mps 754 mmHg 78%
    12:00 +3°C° 0 mm 3 mps 754 mmHg 74%
    13:00 +4°C° 0 mm 3 mps 754 mmHg 75%
    14:00 +4°C° 0 mm 3 mps 754 mmHg 76%
    15:00 +4°C° 0 mm 3 mps 754 mmHg 77%
    16:00 +4°C° 0.1 mm 3 mps 755 mmHg 82%
    17:00 +3°C° 0.1 mm 3 mps 755 mmHg 87%
    18:00 +3°C° 0.1 mm 3 mps 755 mmHg 92%
    19:00 +3°C° 0 mm 3 mps 755 mmHg 93%
    20:00 +4°C° 0 mm 2 mps 755 mmHg 93%
    21:00 +4°C° 0 mm 2 mps 755 mmHg 94%
    22:00 +4°C° 0 mm 2 mps 755 mmHg 94%
    23:00 +4°C° 0 mm 2 mps 755 mmHg 94%

    24 January, Thursday

    Time Temperature Precipitation Wind Pressure Humidity
    00:00 +4°C° 0 mm 2 mps 755 mmHg 95%
    01:00 +4°C° 0.2 mm 2 mps 755 mmHg 95%
    02:00 +5°C° 0.2 mm 1 mps 755 mmHg 96%
    03:00 +5°C° 0.2 mm 1 mps 755 mmHg 97%
    04:00 +5°C° 0.7 mm 1 mps 755 mmHg 97%
    05:00 +6°C° 0.7 mm 1 mps 755 mmHg 97%
    06:00 +6°C° 0.7 mm 1 mps 755 mmHg 97%
    07:00 +6°C° 0.7 mm 1 mps 755 mmHg 97%
    08:00 +5°C° 0.7 mm 0 mps 756 mmHg 97%
    09:00 +5°C° 0.7 mm 0 mps 756 mmHg 97%
    10:00 +6°C° 0.1 mm 0 mps 756 mmHg 97%
    11:00 +7°C° 0.1 mm 1 mps 757 mmHg 97%
    12:00 +8°C° 0.1 mm 1 mps 757 mmHg 97%
    13:00 +8°C° 0.4 mm 1 mps 757 mmHg 97%
    14:00 +7°C° 0.4 mm 2 mps 757 mmHg 97%
    15:00 +8°C° 0.4 mm 2 mps 757 mmHg 97%
    16:00 +8°C° 0.4 mm 3 mps 758 mmHg 97%
    17:00 +9°C° 0.4 mm 3 mps 758 mmHg 96%
    18:00 +8°C° 0.4 mm 4 mps 759 mmHg 95%
    19:00 +8°C° 0.1 mm 4 mps 759 mmHg 96%
    20:00 +8°C° 0.1 mm 4 mps 759 mmHg 96%
    21:00 +7°C° 0.1 mm 4 mps 760 mmHg 96%
    22:00 +7°C° 0 mm 4 mps 760 mmHg 96%
    23:00 +7°C° 0 mm 4 mps 760 mmHg 96%

    25 January, Friday

    Time Temperature Precipitation Wind Pressure Humidity
    00:00 +8°C° 0 mm 3 mps 760 mmHg 97%
    01:00 +8°C° 0 mm 3 mps 761 mmHg 97%
    02:00 +8°C° 0 mm 3 mps 761 mmHg 96%
    03:00 +7°C° 0 mm 4 mps 761 mmHg 96%
    04:00 +6°C° 0 mm 4 mps 761 mmHg 96%
    05:00 +6°C° 0 mm 4 mps 761 mmHg 95%
    06:00 +5°C° 0 mm 4 mps 761 mmHg 95%
    07:00 +6°C° 0 mm 4 mps 761 mmHg 95%
    08:00 +6°C° 0 mm 4 mps 761 mmHg 94%
    09:00 +6°C° 0 mm 4 mps 761 mmHg 94%
    10:00 +7°C° 0 mm 5 mps 761 mmHg 91%
    11:00 +7°C° 0 mm 5 mps 761 mmHg 89%
    12:00 +8°C° 0 mm 5 mps 761 mmHg 87%
    13:00 +8°C° 0 mm 5 mps 761 mmHg 88%
    14:00 +8°C° 0 mm 5 mps 760 mmHg 89%
    15:00 +8°C° 0 mm 5 mps 760 mmHg 90%
    16:00 +8°C° 0.1 mm 6 mps 759 mmHg 90%
    17:00 +8°C° 0.1 mm 6 mps 759 mmHg 91%
    18:00 +9°C° 0.1 mm 6 mps 759 mmHg 92%
    19:00 +8°C° 0.1 mm 5 mps 759 mmHg 93%
    20:00 +8°C° 0.1 mm 5 mps 759 mmHg 93%
    21:00 +8°C° 0.1 mm 4 mps 759 mmHg 94%
    22:00 +9°C° 0.3 mm 3 mps 759 mmHg 95%
    23:00 +8°C° 0.3 mm 3 mps 758 mmHg 96%
    Show more